COSMOS 1823 DEB, 39828

Orbit data source: Space-Track

COSMOS 1823 DEB, 39828 is space debris in LEO originally from a launch on Fri, 20 Feb 1987 UTC launched from the Plesetsk Missile And Space Complex (PKMTR). Debris objects in space refer to the collection of defunct objects orbiting the Earth. Examples of debris include non-operational satellites, rocket bodies, and fragments generated from explosions, collisions, or faulty payload assembly.

Loading next visibility...
Identifier
39828, 1987-020FC
Orbit
LEO
Country
Flag of CISCIS
Related business
Manufacturer
Unknown
Mission
Spacecraft
Bus & Motor
Unknown
Mass
Unknown
Launch date (UTC)
1987-02-20 (39 years ago)
Launch vehicle
Unknown
Launch site
Plesetsk Missile And Space Complex (PKMTR)
Object type
Payload
Rocket body
Debris
Shape & HBR
Unknown shape, 0.1 m
Radar Cross Section
Medium (>0.1 m² and <1 m²)

Expand to show TLE details & history
Last TLE update: 5 months ago

TLE from 5 months ago
0 COSMOS 1823 DEB
1 39828U 87020FC  26025.71567046  .00002007  00000-0  19543-1 0  9990
2 39828  74.2250 193.9588 0109306 162.2223 198.2683 12.18500741204341
Epoch: 2026-01-25T17:10Z
TLE epoch observation values (Epoch: 2026-01-25T17:10:33.927Z)
Latitude
-0.00003°
Longitude
171.29563°
Altitude
1,684.333 km
Speed
6.996 km/s
True Right ascension
12h 55m 50s
True Declination
0° 00' 00"
Sunlit
Object was in daylight at epoch
Visualization orbit readout
Latitude
Unknown
Longitude
Unknown
Altitude
Unknown
Speed
Unknown
Apparent Right ascension
Unknown
Apparent Declination
Unknown
Sunlit
N/A
Visualization observer readout
Local Sidereal Time
03:27:47
Azimuth
Unknown
Elevation
Unknown
Doppler factor
Unknown
Orbital elements
Apogee altitude
1,684.107 km
Perigee altitude
1,509.762 km
Semi-major axis
7,975.072 km
Eccentricity
0.01093
Inclination
74.225°
RAAN
193.9588°
Arg. of periapsis
162.2223°
True anomaly
197.8807°
Mean anomaly
198.2683°
Eccentric anomaly
198.074°
Mean motion
3.04748 °/min
Orbital period
118.13 mins
BSTAR
0.019543
Loading maneuver chart data...
Computing Atmospheric mass density...

Documentation

Showing up to 5 results
|